| time (UTC) | temp F | wind direction | speed MPH | gust MPH | rain 1hr in | rain 24hr in | rain mn in | humidity % | barometer mb |
| 20260508155522 | 45 | 0 | 0.0 | 0.0 | 0.00 | 0.15 | 0.15 | 90 | 1012.7 |
| 20260508155019 | 44 | 0 | 0.0 | 0.0 | 0.00 | 0.15 | 0.15 | 91 | 1012.6 |
| 20260508154539 | 44 | 0 | 0.0 | 0.0 | 0.01 | 0.15 | 0.15 | 90 | 1012.7 |
| 20260508154018 | 43 | 0 | 0.0 | 0.0 | 0.01 | 0.15 | 0.15 | 90 | 1012.8 |
| 20260508153519 | 43 | 0 | 0.0 | 0.0 | 0.01 | 0.15 | 0.15 | 91 | 1012.7 |
| 20260508153044 | 43 | 0 | 0.0 | 0.0 | 0.02 | 0.15 | 0.15 | 91 | 1012.9 |
| 20260508152522 | 43 | 0 | 0.0 | 0.0 | 0.04 | 0.15 | 0.15 | 92 | 1012.8 |
| 20260508152021 | 42 | 0 | 0.0 | 0.0 | 0.06 | 0.15 | 0.15 | 92 | 1012.8 |
| 20260508151541 | 42 | 0 | 0.0 | 0.0 | 0.07 | 0.15 | 0.15 | 91 | 1012.7 |
| 20260508151020 | 42 | 0 | 0.0 | 0.0 | 0.07 | 0.15 | 0.15 | 91 | 1012.7 |
| 20260508150521 | 42 | 0 | 0.0 | 0.0 | 0.07 | 0.15 | 0.15 | 91 | 1012.8 |
| 20260508150037 | 42 | 0 | 0.0 | 0.0 | 0.07 | 0.15 | 0.15 | 91 | 1012.6 |
| 20260508145518 | 41 | 0 | 0.0 | 0.0 | 0.07 | 0.15 | 0.15 | 91 | 1012.7 |
| 20260508145022 | 41 | 0 | 0.0 | 0.0 | 0.07 | 0.15 | 0.15 | 91 | 1012.7 |
| 20260508144534 | 41 | 0 | 0.0 | 0.0 | 0.06 | 0.14 | 0.14 | 90 | 1012.7 |
| 20260508144018 | 41 | 0 | 0.0 | 0.0 | 0.06 | 0.14 | 0.14 | 89 | 1012.7 |
| 20260508143518 | 41 | 0 | 0.0 | 0.0 | 0.05 | 0.13 | 0.13 | 88 | 1012.8 |
| 20260508143042 | 42 | 0 | 0.0 | 0.0 | 0.04 | 0.12 | 0.12 | 86 | 1012.8 |
| 20260508142521 | 42 | 0 | 0.0 | 0.0 | 0.03 | 0.11 | 0.11 | 83 | 1012.8 |
| 20260508142018 | 44 | 0 | 0.0 | 0.0 | 0.00 | 0.08 | 0.08 | 82 | 1012.6 |
| 20260508141537 | 44 | 0 | 0.0 | 0.0 | 0.00 | 0.08 | 0.08 | 80 | 1012.4 |
| 20260508141018 | 44 | 0 | 0.0 | 0.0 | 0.00 | 0.08 | 0.08 | 80 | 1012.2 |
| 20260508140518 | 45 | 0 | 0.0 | 0.0 | 0.00 | 0.08 | 0.08 | 80 | 1012.1 |
| 20260508140030 | 45 | 0 | 0.0 | 0.0 | 0.00 | 0.08 | 0.08 | 79 | 1012.0 |
| 20260508135518 | 46 | 0 | 0.0 | 0.0 | 0.00 | 0.08 | 0.08 | 79 | 1011.9 |
| 20260508135018 | 46 | 0 | 0.0 | 0.0 | 0.00 | 0.08 | 0.08 | 79 | 1011.9 |
| 20260508134534 | 46 | 0 | 0.0 | 0.0 | 0.00 | 0.08 | 0.08 | 79 | 1011.8 |
| 20260508134018 | 46 | 0 | 0.0 | 0.0 | 0.00 | 0.08 | 0.08 | 79 | 1011.9 |
| 20260508133518 | 46 | 0 | 0.0 | 0.0 | 0.00 | 0.08 | 0.08 | 79 | 1011.9 |
| 20260508133036 | 46 | 0 | 0.0 | 0.0 | 0.00 | 0.08 | 0.08 | 80 | 1011.9 |
| 20260508132517 | 46 | 0 | 0.0 | 0.0 | 0.00 | 0.08 | 0.08 | 79 | 1011.9 |
| 20260508132018 | 46 | 0 | 0.0 | 0.0 | 0.00 | 0.08 | 0.08 | 79 | 1011.8 |
| 20260508131530 | 46 | 0 | 0.0 | 0.0 | 0.00 | 0.08 | 0.08 | 78 | 1011.7 |
| 20260508131018 | 46 | 0 | 0.0 | 0.0 | 0.00 | 0.08 | 0.08 | 78 | 1011.6 |
| 20260508130518 | 46 | 0 | 0.0 | 0.0 | 0.00 | 0.08 | 0.08 | 79 | 1011.5 |
| 20260508130032 | 46 | 0 | 0.0 | 0.0 | 0.00 | 0.08 | 0.08 | 78 | 1011.4 |
| 20260508125520 | 46 | 0 | 0.0 | 0.0 | 0.00 | 0.08 | 0.08 | 80 | 1011.1 |
| 20260508125016 | 47 | 0 | 0.0 | 0.0 | 0.00 | 0.08 | 0.08 | 81 | 1011.4 |
| 20260508124529 | 47 | 0 | 0.0 | 0.0 | 0.00 | 0.08 | 0.08 | 79 | 1011.4 |
| 20260508124022 | 47 | 0 | 0.0 | 0.0 | 0.00 | 0.08 | 0.08 | 82 | 1011.6 |
| 20260508123518 | 47 | 0 | 0.0 | 0.0 | 0.00 | 0.08 | 0.08 | 83 | 1011.6 |
| 20260508123035 | 46 | 0 | 0.0 | 0.0 | 0.00 | 0.08 | 0.08 | 85 | 1011.5 |
| 20260508122519 | 45 | 0 | 0.0 | 0.0 | 0.00 | 0.08 | 0.08 | 86 | 1011.5 |
| 20260508122018 | 45 | 0 | 0.0 | 0.0 | 0.00 | 0.08 | 0.08 | 87 | 1011.5 |
| 20260508121554 | 44 | 0 | 0.0 | 0.0 | 0.00 | 0.08 | 0.08 | 89 | 1011.5 |
| 20260508121017 | 43 | 0 | 0.0 | 0.0 | 0.00 | 0.08 | 0.08 | 92 | 1011.5 |
| 20260508120519 | 42 | 0 | 0.0 | 0.0 | 0.00 | 0.08 | 0.08 | 93 | 1011.4 |
| 20260508120036 | 42 | 0 | 0.0 | 0.0 | 0.00 | 0.08 | 0.08 | 94 | 1011.5 |
| 20260508115518 | 41 | 0 | 0.0 | 0.0 | 0.00 | 0.08 | 0.08 | 94 | 1011.8 |
| 20260508115017 | 41 | 0 | 0.0 | 0.0 | 0.00 | 0.08 | 0.08 | 95 | 1011.7 |
| 20260508114531 | 40 | 0 | 0.0 | 0.0 | 0.00 | 0.08 | 0.08 | 95 | 1011.7 |
| 20260508114017 | 40 | 0 | 0.0 | 0.0 | 0.00 | 0.08 | 0.08 | 95 | 1011.9 |
| 20260508113559 | 39 | 0 | 0.0 | 0.0 | 0.00 | 0.08 | 0.08 | 95 | 1011.9 |
| 20260508113038 | 39 | 0 | 0.0 | 0.0 | 0.00 | 0.08 | 0.08 | 95 | 1011.8 |
| 20260508112519 | 39 | 0 | 0.0 | 0.0 | 0.00 | 0.08 | 0.08 | 95 | 1012.0 |
| 20260508112019 | 38 | 0 | 0.0 | 0.0 | 0.00 | 0.08 | 0.08 | 95 | 1011.9 |
| 20260508111535 | 38 | 0 | 0.0 | 0.0 | 0.00 | 0.08 | 0.08 | 95 | 1012.0 |
| 20260508111019 | 37 | 0 | 0.0 | 0.0 | 0.00 | 0.08 | 0.08 | 95 | 1011.9 |
| 20260508110517 | 37 | 0 | 0.0 | 0.0 | 0.00 | 0.08 | 0.08 | 95 | 1011.9 |
| 20260508110040 | 37 | 0 | 0.0 | 0.0 | 0.00 | 0.08 | 0.08 | 95 | 1011.8 |
| 20260508105519 | 36 | 0 | 0.0 | 0.0 | 0.00 | 0.08 | 0.08 | 95 | 1011.8 |
| 20260508105020 | 36 | 0 | 0.0 | 0.0 | 0.00 | 0.08 | 0.08 | 95 | 1012.0 |
| 20260508104531 | 36 | 0 | 0.0 | 0.0 | 0.00 | 0.08 | 0.08 | 94 | 1012.0 |
| 20260508104018 | 36 | 0 | 0.0 | 0.0 | 0.00 | 0.08 | 0.08 | 95 | 1012.1 |
| 20260508103520 | 36 | 0 | 0.0 | 0.0 | 0.00 | 0.08 | 0.08 | 94 | 1012.1 |
| 20260508103033 | 36 | 0 | 0.0 | 0.0 | 0.00 | 0.08 | 0.08 | 94 | 1012.1 |
| 20260508102519 | 35 | 0 | 0.0 | 0.0 | 0.00 | 0.08 | 0.08 | 94 | 1012.0 |
| 20260508102019 | 35 | 0 | 0.0 | 0.0 | 0.00 | 0.08 | 0.08 | 94 | 1011.9 |
| 20260508101534 | 36 | 0 | 0.0 | 0.0 | 0.00 | 0.08 | 0.08 | 94 | 1011.7 |
| 20260508101023 | 36 | 0 | 0.0 | 0.0 | 0.00 | 0.08 | 0.08 | 94 | 1011.6 |
| 20260508100518 | 36 | 0 | 0.0 | 0.0 | 0.00 | 0.08 | 0.08 | 94 | 1011.6 |
| 20260508100035 | 36 | 0 | 0.0 | 0.0 | 0.00 | 0.08 | 0.08 | 94 | 1011.5 |
| 20260508095518 | 36 | 0 | 0.0 | 0.0 | 0.00 | 0.08 | 0.08 | 93 | 1011.5 |
| 20260508095017 | 36 | 0 | 0.0 | 0.0 | 0.00 | 0.08 | 0.08 | 93 | 1011.5 |
| 20260508094536 | 36 | 0 | 0.0 | 0.0 | 0.00 | 0.08 | 0.08 | 93 | 1011.4 |
| 20260508094018 | 36 | 0 | 0.0 | 0.0 | 0.00 | 0.08 | 0.08 | 93 | 1011.5 |
| 20260508093518 | 36 | 0 | 0.0 | 0.0 | 0.00 | 0.08 | 0.08 | 93 | 1011.4 |
| 20260508093031 | 36 | 0 | 0.0 | 0.0 | 0.00 | 0.08 | 0.08 | 93 | 1011.5 |
| 20260508092517 | 37 | 0 | 0.0 | 0.0 | 0.00 | 0.08 | 0.08 | 92 | 1011.4 |
| 20260508092017 | 37 | 0 | 0.0 | 0.0 | 0.01 | 0.08 | 0.08 | 93 | 1011.3 |
| 20260508091533 | 37 | 0 | 0.0 | 0.0 | 0.01 | 0.08 | 0.08 | 92 | 1011.4 |
| 20260508091018 | 38 | 0 | 0.0 | 0.0 | 0.01 | 0.08 | 0.08 | 92 | 1011.4 |
| 20260508090518 | 38 | 0 | 0.0 | 0.0 | 0.01 | 0.08 | 0.08 | 92 | 1011.5 |
| 20260508090031 | 38 | 0 | 0.0 | 0.0 | 0.02 | 0.08 | 0.08 | 93 | 1011.6 |
| 20260508085524 | 38 | 0 | 0.0 | 0.0 | 0.03 | 0.08 | 0.08 | 92 | 1011.5 |
| 20260508085017 | 38 | 0 | 0.0 | 0.0 | 0.03 | 0.08 | 0.08 | 93 | 1011.5 |
| 20260508084538 | 38 | 0 | 0.0 | 0.0 | 0.04 | 0.08 | 0.08 | 92 | 1011.6 |
| 20260508084018 | 38 | 0 | 0.0 | 0.0 | 0.05 | 0.08 | 0.08 | 92 | 1011.7 |
| 20260508083516 | 38 | 0 | 0.0 | 0.0 | 0.06 | 0.08 | 0.08 | 92 | 1011.6 |
| 20260508083114 | 38 | 0 | 0.0 | 0.0 | 0.07 | 0.08 | 0.08 | 91 | 1011.7 |
| 20260508082518 | 38 | 0 | 0.0 | 0.0 | 0.08 | 0.08 | 0.08 | 91 | 1011.8 |
| 20260508082020 | 38 | 0 | 0.0 | 0.0 | 0.07 | 0.07 | 0.07 | 91 | 1011.8 |
| 20260508081536 | 38 | 0 | 0.0 | 0.0 | 0.07 | 0.07 | 0.07 | 90 | 1011.8 |
| 20260508081017 | 39 | 0 | 0.0 | 0.0 | 0.07 | 0.07 | 0.07 | 90 | 1011.8 |
| 20260508080518 | 39 | 0 | 0.0 | 0.0 | 0.07 | 0.07 | 0.07 | 90 | 1011.8 |
| 20260508080054 | 39 | 0 | 0.0 | 0.0 | 0.06 | 0.06 | 0.06 | 89 | 1011.7 |
| 20260508075517 | 39 | 0 | 0.0 | 0.0 | 0.05 | 0.05 | 0.05 | 89 | 1011.7 |
| 20260508075017 | 40 | 0 | 0.0 | 0.0 | 0.05 | 0.05 | 0.05 | 88 | 1011.6 |
| 20260508074535 | 40 | 0 | 0.0 | 0.0 | 0.04 | 0.04 | 0.04 | 87 | 1011.7 |
| 20260508074019 | 41 | 0 | 0.0 | 0.0 | 0.03 | 0.03 | 0.03 | 86 | 1011.6 |
| 20260508073519 | 41 | 0 | 0.0 | 0.0 | 0.02 | 0.02 | 0.02 | 85 | 1011.5 |
| 20260508073033 | 42 | 0 | 0.0 | 0.0 | 0.01 | 0.01 | 0.01 | 83 | 1011.5 |
| 20260508072518 | 42 | 0 | 0.0 | 0.0 | 0.00 | 0.00 | 0.00 | 81 | 1011.4 |
| 20260508072018 | 43 | 0 | 0.0 | 0.0 | 0.00 | 0.00 | 0.00 | 80 | 1011.3 |
| 20260508071536 | 43 | 0 | 0.0 | 0.0 | 0.00 | 0.00 | 0.00 | 78 | 1011.3 |
| 20260508071018 | 43 | 0 | 0.0 | 0.0 | 0.00 | 0.00 | 0.00 | 78 | 1011.2 |
| 20260508070520 | 43 | 0 | 0.0 | 0.0 | 0.00 | 0.00 | 0.00 | 78 | 1011.1 |
| 20260508070034 | 42 | 0 | 0.0 | 0.0 | 0.00 | 0.00 | 0.00 | 80 | 1011.0 |
| 20260508065517 | 41 | 0 | 0.0 | 0.0 | 0.00 | 0.00 | 0.00 | 84 | 1011.0 |
| 20260508065017 | 40 | 0 | 0.0 | 0.0 | 0.00 | 0.00 | 0.00 | 89 | 1011.0 |
| 20260508064600 | 40 | 0 | 0.0 | 0.0 | 0.00 | 0.00 | 0.00 | 89 | 1010.8 |
| 20260508064017 | 40 | 0 | 0.0 | 0.0 | 0.00 | 0.00 | 0.00 | 89 | 1011.0 |
| 20260508063518 | 39 | 0 | 0.0 | 0.0 | 0.00 | 0.00 | 0.00 | 89 | 1010.8 |
| 20260508063038 | 39 | 0 | 0.0 | 0.0 | 0.00 | 0.00 | 0.00 | 90 | 1010.8 |
| 20260508062518 | 39 | 0 | 0.0 | 0.0 | 0.00 | 0.00 | 0.00 | 89 | 1010.7 |
| 20260508062018 | 39 | 0 | 0.0 | 0.0 | 0.00 | 0.00 | 0.00 | 89 | 1010.8 |
| 20260508061537 | 39 | 0 | 0.0 | 0.0 | 0.00 | 0.00 | 0.00 | 89 | 1010.8 |
| 20260508061021 | 39 | 0 | 0.0 | 0.0 | 0.00 | 0.00 | 0.00 | 89 | 1010.7 |
| 20260508060518 | 39 | 0 | 0.0 | 0.0 | 0.00 | 0.00 | 0.00 | 88 | 1010.7 |
| 20260508060034 | 39 | 0 | 0.0 | 0.0 | 0.00 | 0.00 | 0.00 | 88 | 1010.6 |
| 20260508055518 | 39 | 0 | 0.0 | 0.0 | 0.00 | 0.01 | 0.00 | 88 | 1010.7 |
| 20260508055018 | 39 | 0 | 0.0 | 0.0 | 0.00 | 0.01 | 0.00 | 89 | 1010.7 |
| 20260508054535 | 39 | 0 | 0.0 | 0.0 | 0.00 | 0.01 | 0.00 | 89 | 1010.7 |
| 20260508054017 | 39 | 0 | 0.0 | 0.0 | 0.00 | 0.01 | 0.00 | 90 | 1010.8 |
| 20260508053517 | 39 | 0 | 0.0 | 0.0 | 0.00 | 0.01 | 0.00 | 89 | 1010.7 |
| 20260508053032 | 39 | 0 | 0.0 | 0.0 | 0.00 | 0.01 | 0.00 | 89 | 1010.8 |
| 20260508052520 | 39 | 0 | 0.0 | 0.0 | 0.00 | 0.01 | 0.00 | 88 | 1010.8 |
| 20260508052017 | 39 | 0 | 0.0 | 0.0 | 0.00 | 0.01 | 0.00 | 87 | 1010.7 |
| 20260508051532 | 39 | 0 | 0.0 | 0.0 | 0.00 | 0.01 | 0.00 | 87 | 1010.8 |
| 20260508051018 | 39 | 0 | 0.0 | 0.0 | 0.00 | 0.01 | 0.00 | 88 | 1010.9 |
| 20260508050518 | 39 | 0 | 0.0 | 0.0 | 0.00 | 0.01 | 0.00 | 88 | 1010.9 |
| 20260508050045 | 38 | 0 | 0.0 | 0.0 | 0.00 | 0.01 | 0.00 | 88 | 1010.9 |
| 20260508045517 | 38 | 0 | 0.0 | 0.0 | 0.00 | 0.01 | 0.00 | 89 | 1010.8 |
| 20260508045017 | 38 | 0 | 0.0 | 0.0 | 0.00 | 0.01 | 0.00 | 88 | 1010.9 |
| 20260508044531 | 38 | 0 | 0.0 | 0.0 | 0.00 | 0.01 | 0.00 | 88 | 1011.0 |
| 20260508044018 | 38 | 0 | 0.0 | 0.0 | 0.00 | 0.01 | 0.00 | 88 | 1010.9 |
| 20260508043522 | 38 | 0 | 0.0 | 0.0 | 0.00 | 0.01 | 0.00 | 87 | 1010.8 |
| 20260508043036 | 38 | 0 | 0.0 | 0.0 | 0.00 | 0.01 | 0.00 | 87 | 1010.8 |
| 20260508042518 | 38 | 0 | 0.0 | 0.0 | 0.00 | 0.01 | 0.00 | 88 | 1010.9 |
| 20260508042017 | 37 | 0 | 0.0 | 0.0 | 0.00 | 0.01 | 0.00 | 88 | 1010.8 |
| 20260508041530 | 37 | 0 | 0.0 | 0.0 | 0.00 | 0.01 | 0.00 | 89 | 1010.9 |
| 20260508041018 | 37 | 0 | 0.0 | 0.0 | 0.00 | 0.01 | 0.00 | 90 | 1010.9 |
| 20260508040518 | 36 | 0 | 0.0 | 0.0 | 0.00 | 0.01 | 0.00 | 90 | 1010.9 |
| 20260508040035 | 36 | 0 | 0.0 | 0.0 | 0.00 | 0.01 | 0.00 | 89 | 1010.9 |
| 20260508035521 | 36 | 0 | 0.0 | 0.0 | 0.00 | 0.01 | 0.01 | 90 | 1010.9 |
| 20260508035017 | 36 | 0 | 0.0 | 0.0 | 0.00 | 0.01 | 0.01 | 90 | 1010.8 |
| 20260508034530 | 35 | 0 | 0.0 | 0.0 | 0.00 | 0.01 | 0.01 | 91 | 1010.8 |
| 20260508034018 | 35 | 0 | 0.0 | 0.0 | 0.00 | 0.01 | 0.01 | 90 | 1010.8 |
| 20260508033517 | 35 | 0 | 0.0 | 0.0 | 0.00 | 0.01 | 0.01 | 90 | 1010.8 |
| 20260508033033 | 35 | 0 | 0.0 | 0.0 | 0.00 | 0.01 | 0.01 | 90 | 1010.7 |
| 20260508032518 | 36 | 0 | 0.0 | 0.0 | 0.00 | 0.01 | 0.01 | 90 | 1010.7 |
| 20260508032018 | 36 | 0 | 0.0 | 0.0 | 0.00 | 0.01 | 0.01 | 90 | 1010.6 |
| 20260508031533 | 36 | 0 | 0.0 | 0.0 | 0.00 | 0.01 | 0.01 | 89 | 1010.6 |
| 20260508031018 | 36 | 0 | 0.0 | 0.0 | 0.00 | 0.01 | 0.01 | 90 | 1010.4 |
| 20260508030518 | 36 | 0 | 0.0 | 0.0 | 0.00 | 0.01 | 0.01 | 88 | 1010.2 |
| 20260508030034 | 37 | 0 | 0.0 | 0.0 | 0.00 | 0.01 | 0.01 | 89 | 1010.1 |
| 20260508025518 | 37 | 0 | 0.0 | 0.0 | 0.00 | 0.01 | 0.01 | 89 | 1010.0 |
| 20260508025020 | 37 | 0 | 0.0 | 0.0 | 0.00 | 0.01 | 0.01 | 88 | 1010.0 |
| 20260508024551 | 38 | 0 | 0.0 | 0.0 | 0.00 | 0.01 | 0.01 | 88 | 1010.1 |
| 20260508024018 | 38 | 0 | 0.0 | 0.0 | 0.00 | 0.01 | 0.01 | 88 | 1010.1 |
| 20260508023518 | 38 | 0 | 0.0 | 0.0 | 0.00 | 0.01 | 0.01 | 88 | 1010.0 |
| 20260508023035 | 39 | 0 | 0.0 | 0.0 | 0.00 | 0.01 | 0.01 | 88 | 1010.1 |
| 20260508022517 | 39 | 0 | 0.0 | 0.0 | 0.00 | 0.01 | 0.01 | 88 | 1010.2 |
| 20260508022018 | 39 | 0 | 0.0 | 0.0 | 0.00 | 0.01 | 0.01 | 88 | 1010.3 |
| 20260508021535 | 39 | 0 | 0.0 | 0.0 | 0.00 | 0.01 | 0.01 | 87 | 1010.4 |
| 20260508021018 | 40 | 0 | 0.0 | 0.0 | 0.00 | 0.01 | 0.01 | 86 | 1010.5 |
| 20260508020518 | 40 | 0 | 0.0 | 0.0 | 0.00 | 0.01 | 0.01 | 85 | 1010.4 |
| 20260508020033 | 40 | 0 | 0.0 | 0.0 | 0.00 | 0.01 | 0.01 | 85 | 1010.6 |
| 20260508015518 | 41 | 0 | 0.0 | 0.0 | 0.00 | 0.01 | 0.01 | 84 | 1010.5 |
| 20260508015018 | 41 | 0 | 0.0 | 0.0 | 0.00 | 0.01 | 0.01 | 83 | 1010.5 |
| 20260508014534 | 42 | 0 | 0.0 | 0.0 | 0.00 | 0.01 | 0.01 | 82 | 1010.5 |
| 20260508014018 | 42 | 0 | 0.0 | 0.0 | 0.00 | 0.01 | 0.01 | 82 | 1010.4 |
| 20260508013518 | 43 | 0 | 0.0 | 0.0 | 0.00 | 0.01 | 0.01 | 83 | 1010.5 |
| 20260508013032 | 43 | 0 | 0.0 | 0.0 | 0.00 | 0.01 | 0.01 | 82 | 1010.4 |
| 20260508012521 | 43 | 0 | 0.0 | 0.0 | 0.00 | 0.01 | 0.01 | 81 | 1010.4 |
| 20260508012019 | 44 | 0 | 0.0 | 0.0 | 0.00 | 0.01 | 0.01 | 82 | 1010.4 |
| 20260508011548 | 44 | 0 | 0.0 | 0.0 | 0.00 | 0.01 | 0.01 | 82 | 1010.5 |
| 20260508011017 | 44 | 0 | 0.0 | 0.0 | 0.00 | 0.01 | 0.01 | 80 | 1010.5 |
| 20260508010517 | 44 | 0 | 0.0 | 0.0 | 0.00 | 0.01 | 0.01 | 79 | 1010.6 |
| 20260508010035 | 44 | 0 | 0.0 | 0.0 | 0.00 | 0.01 | 0.01 | 78 | 1010.6 |
| 20260508005527 | 44 | 0 | 0.0 | 0.0 | 0.00 | 0.01 | 0.01 | 80 | 1010.4 |
| 20260508005016 | 44 | 0 | 0.0 | 0.0 | 0.00 | 0.01 | 0.01 | 78 | 1010.4 |
| 20260508004549 | 44 | 0 | 0.0 | 0.0 | 0.00 | 0.01 | 0.01 | 77 | 1010.4 |
| 20260508004018 | 44 | 0 | 0.0 | 0.0 | 0.00 | 0.01 | 0.01 | 75 | 1010.3 |
| 20260508003518 | 44 | 0 | 0.0 | 0.0 | 0.00 | 0.01 | 0.01 | 77 | 1010.1 |
| 20260508003041 | 45 | 0 | 0.0 | 0.0 | 0.00 | 0.01 | 0.01 | 77 | 1010.1 |
| 20260508002517 | 45 | 0 | 0.0 | 0.0 | 0.00 | 0.01 | 0.01 | 75 | 1010.1 |
| 20260508002017 | 45 | 0 | 0.0 | 0.0 | 0.00 | 0.01 | 0.01 | 73 | 1010.1 |
| 20260508001540 | 46 | 0 | 0.0 | 0.0 | 0.00 | 0.01 | 0.01 | 70 | 1009.9 |
| 20260508001018 | 46 | 0 | 0.0 | 0.0 | 0.00 | 0.01 | 0.01 | 67 | 1009.8 |
| 20260508000523 | 46 | 0 | 0.0 | 0.0 | 0.00 | 0.01 | 0.01 | 64 | 1009.8 |
| 20260508000034 | 47 | 0 | 0.0 | 0.0 | 0.00 | 0.01 | 0.01 | 58 | 1009.8 |
| 20260507235518 | 47 | 0 | 0.0 | 0.0 | 0.00 | 0.01 | 0.01 | 57 | 1009.8 |
| 20260507235022 | 48 | 0 | 0.0 | 0.0 | 0.00 | 0.01 | 0.01 | 53 | 1009.8 |
| 20260507234533 | 49 | 0 | 0.0 | 0.0 | 0.00 | 0.01 | 0.01 | 51 | 1009.7 |
| 20260507234018 | 49 | 0 | 0.0 | 0.0 | 0.00 | 0.01 | 0.01 | 48 | 1009.5 |
| 20260507233518 | 50 | 0 | 0.0 | 0.0 | 0.00 | 0.01 | 0.01 | 47 | 1009.6 |
| 20260507233033 | 50 | 0 | 0.0 | 0.0 | 0.00 | 0.01 | 0.01 | 46 | 1009.6 |
| 20260507232520 | 50 | 0 | 0.0 | 0.0 | 0.00 | 0.01 | 0.01 | 46 | 1009.6 |
| 20260507232017 | 51 | 0 | 0.0 | 0.0 | 0.00 | 0.01 | 0.01 | 45 | 1009.6 |
| 20260507231534 | 51 | 0 | 0.0 | 0.0 | 0.00 | 0.01 | 0.01 | 44 | 1009.6 |
| 20260507231018 | 51 | 0 | 0.0 | 0.0 | 0.00 | 0.01 | 0.01 | 45 | 1009.6 |
| 20260507230520 | 51 | 0 | 0.0 | 0.0 | 0.00 | 0.01 | 0.01 | 45 | 1009.5 |
| 20260507230036 | 52 | 0 | 0.0 | 0.0 | 0.00 | 0.01 | 0.01 | 44 | 1009.6 |
| 20260507225517 | 52 | 0 | 0.0 | 0.0 | 0.00 | 0.01 | 0.01 | 46 | 1009.6 |
| 20260507225020 | 52 | 0 | 0.0 | 0.0 | 0.00 | 0.01 | 0.01 | 43 | 1009.5 |
| 20260507224530 | 53 | 0 | 0.0 | 0.0 | 0.00 | 0.01 | 0.01 | 45 | 1009.5 |
| 20260507224017 | 53 | 0 | 0.0 | 0.0 | 0.00 | 0.01 | 0.01 | 42 | 1009.6 |
| 20260507223518 | 53 | 0 | 0.0 | 0.0 | 0.00 | 0.01 | 0.01 | 42 | 1009.5 |
| 20260507223035 | 54 | 0 | 0.0 | 0.0 | 0.00 | 0.01 | 0.01 | 41 | 1009.6 |
| 20260507222516 | 54 | 0 | 0.0 | 0.0 | 0.00 | 0.01 | 0.01 | 41 | 1009.5 |
| 20260507222018 | 54 | 0 | 0.0 | 0.0 | 0.00 | 0.01 | 0.01 | 42 | 1009.5 |
| 20260507221530 | 54 | 0 | 0.0 | 0.0 | 0.00 | 0.01 | 0.01 | 43 | 1009.4 |
| 20260507221018 | 54 | 0 | 0.0 | 0.0 | 0.00 | 0.01 | 0.01 | 46 | 1009.6 |
| 20260507220518 | 54 | 0 | 0.0 | 0.0 | 0.00 | 0.01 | 0.01 | 44 | 1009.5 |
| 20260507220030 | 54 | 0 | 0.0 | 0.0 | 0.00 | 0.01 | 0.01 | 43 | 1009.4 |
| 20260507215518 | 54 | 0 | 0.0 | 0.0 | 0.00 | 0.01 | 0.01 | 43 | 1009.5 |
| 20260507215018 | 54 | 0 | 0.0 | 0.0 | 0.00 | 0.01 | 0.01 | 43 | 1009.7 |
| 20260507214530 | 54 | 0 | 0.0 | 0.0 | 0.00 | 0.01 | 0.01 | 43 | 1009.8 |
| 20260507214017 | 54 | 0 | 0.0 | 0.0 | 0.00 | 0.01 | 0.01 | 42 | 1009.6 |
| 20260507213519 | 55 | 0 | 0.0 | 0.0 | 0.00 | 0.01 | 0.01 | 44 | 1009.7 |
| 20260507213035 | 54 | 0 | 0.0 | 0.0 | 0.00 | 0.01 | 0.01 | 44 | 1009.7 |
| 20260507212519 | 55 | 0 | 0.0 | 0.0 | 0.00 | 0.01 | 0.01 | 49 | 1009.7 |
| 20260507212014 | 54 | 0 | 0.0 | 0.0 | 0.00 | 0.01 | 0.01 | 44 | 1009.7 |
| 20260507211534 | 54 | 0 | 0.0 | 0.0 | 0.00 | 0.01 | 0.01 | 42 | 1009.6 |
| 20260507211018 | 54 | 0 | 0.0 | 0.0 | 0.00 | 0.01 | 0.01 | 45 | 1009.5 |
| 20260507210521 | 54 | 0 | 0.0 | 0.0 | 0.00 | 0.01 | 0.01 | 45 | 1009.6 |
| 20260507210033 | 54 | 0 | 0.0 | 0.0 | 0.00 | 0.01 | 0.01 | 46 | 1009.6 |
| 20260507205518 | 54 | 0 | 0.0 | 0.0 | 0.00 | 0.02 | 0.01 | 48 | 1009.6 |
| 20260507205017 | 54 | 0 | 0.0 | 0.0 | 0.00 | 0.02 | 0.01 | 48 | 1009.5 |
| 20260507204548 | 55 | 0 | 0.0 | 0.0 | 0.00 | 0.02 | 0.01 | 46 | 1009.5 |
| 20260507204018 | 55 | 0 | 0.0 | 0.0 | 0.00 | 0.02 | 0.01 | 46 | 1009.5 |
| 20260507203518 | 55 | 0 | 0.0 | 0.0 | 0.00 | 0.02 | 0.01 | 47 | 1009.6 |
| 20260507203030 | 54 | 0 | 0.0 | 0.0 | 0.00 | 0.02 | 0.01 | 44 | 1009.6 |
| 20260507202517 | 53 | 0 | 0.0 | 0.0 | 0.00 | 0.02 | 0.01 | 48 | 1009.6 |
| 20260507202015 | 53 | 0 | 0.0 | 0.0 | 0.00 | 0.02 | 0.01 | 45 | 1010.0 |
| 20260507201535 | 54 | 0 | 0.0 | 0.0 | 0.00 | 0.02 | 0.01 | 45 | 1009.8 |
| 20260507201017 | 55 | 0 | 0.0 | 0.0 | 0.00 | 0.02 | 0.01 | 46 | 1009.6 |
| 20260507200518 | 55 | 0 | 0.0 | 0.0 | 0.00 | 0.02 | 0.01 | 51 | 1009.7 |
| 20260507200038 | 54 | 0 | 0.0 | 0.0 | 0.00 | 0.02 | 0.01 | 49 | 1009.7 |
| 20260507195519 | 54 | 0 | 0.0 | 0.0 | 0.00 | 0.04 | 0.01 | 47 | 1009.7 |
| 20260507195014 | 54 | 0 | 0.0 | 0.0 | 0.00 | 0.04 | 0.01 | 47 | 1010.0 |
| 20260507194533 | 55 | 0 | 0.0 | 0.0 | 0.00 | 0.04 | 0.01 | 45 | 1010.0 |
| 20260507194018 | 56 | 0 | 0.0 | 0.0 | 0.00 | 0.04 | 0.01 | 47 | 1009.9 |
| 20260507193521 | 56 | 0 | 0.0 | 0.0 | 0.00 | 0.04 | 0.01 | 50 | 1009.8 |
| 20260507193034 | 55 | 0 | 0.0 | 0.0 | 0.00 | 0.04 | 0.01 | 48 | 1010.0 |
| 20260507192517 | 55 | 0 | 0.0 | 0.0 | 0.00 | 0.04 | 0.01 | 51 | 1010.1 |
| 20260507192019 | 54 | 0 | 0.0 | 0.0 | 0.00 | 0.04 | 0.01 | 46 | 1010.2 |
| 20260507191531 | 54 | 0 | 0.0 | 0.0 | 0.00 | 0.04 | 0.01 | 45 | 1010.2 |
| 20260507191017 | 54 | 0 | 0.0 | 0.0 | 0.00 | 0.04 | 0.01 | 47 | 1010.3 |
| 20260507190515 | 55 | 0 | 0.0 | 0.0 | 0.00 | 0.04 | 0.01 | 48 | 1010.4 |
| 20260507190037 | 55 | 0 | 0.0 | 0.0 | 0.00 | 0.04 | 0.01 | 50 | 1010.4 |
| 20260507185518 | 54 | 0 | 0.0 | 0.0 | 0.00 | 0.06 | 0.01 | 44 | 1010.5 |
| 20260507185017 | 54 | 0 | 0.0 | 0.0 | 0.00 | 0.06 | 0.01 | 46 | 1010.6 |
| 20260507184539 | 54 | 0 | 0.0 | 0.0 | 0.00 | 0.06 | 0.01 | 48 | 1010.6 |
| 20260507184017 | 54 | 0 | 0.0 | 0.0 | 0.00 | 0.06 | 0.01 | 49 | 1010.6 |
| 20260507183518 | 53 | 0 | 0.0 | 0.0 | 0.00 | 0.06 | 0.01 | 51 | 1010.6 |
| 20260507183037 | 54 | 0 | 0.0 | 0.0 | 0.00 | 0.06 | 0.01 | 50 | 1010.6 |
| 20260507182518 | 53 | 0 | 0.0 | 0.0 | 0.00 | 0.06 | 0.01 | 51 | 1010.7 |
| 20260507182018 | 53 | 0 | 0.0 | 0.0 | 0.00 | 0.06 | 0.01 | 51 | 1010.9 |
| 20260507181532 | 53 | 0 | 0.0 | 0.0 | 0.00 | 0.06 | 0.01 | 53 | 1011.0 |
| 20260507181018 | 54 | 0 | 0.0 | 0.0 | 0.00 | 0.06 | 0.01 | 52 | 1010.8 |
| 20260507180518 | 53 | 0 | 0.0 | 0.0 | 0.00 | 0.06 | 0.01 | 52 | 1010.9 |
| 20260507180032 | 53 | 0 | 0.0 | 0.0 | 0.00 | 0.06 | 0.01 | 50 | 1010.9 |
| 20260507175518 | 53 | 0 | 0.0 | 0.0 | 0.00 | 0.08 | 0.01 | 52 | 1010.8 |
| 20260507175017 | 53 | 0 | 0.0 | 0.0 | 0.00 | 0.08 | 0.01 | 52 | 1010.9 |
| 20260507174537 | 53 | 0 | 0.0 | 0.0 | 0.00 | 0.08 | 0.01 | 53 | 1011.0 |
| 20260507174017 | 53 | 0 | 0.0 | 0.0 | 0.00 | 0.08 | 0.01 | 52 | 1010.9 |
| 20260507173521 | 53 | 0 | 0.0 | 0.0 | 0.00 | 0.08 | 0.01 | 56 | 1011.0 |
| 20260507173036 | 53 | 0 | 0.0 | 0.0 | 0.00 | 0.08 | 0.01 | 59 | 1011.1 |
| 20260507172517 | 53 | 0 | 0.0 | 0.0 | 0.00 | 0.08 | 0.01 | 58 | 1011.1 |
| 20260507172017 | 53 | 0 | 0.0 | 0.0 | 0.00 | 0.08 | 0.01 | 62 | 1011.1 |
| 20260507171533 | 53 | 0 | 0.0 | 0.0 | 0.00 | 0.08 | 0.01 | 58 | 1011.2 |
| 20260507171018 | 53 | 0 | 0.0 | 0.0 | 0.00 | 0.08 | 0.01 | 57 | 1011.1 |
| 20260507170519 | 52 | 0 | 0.0 | 0.0 | 0.00 | 0.08 | 0.01 | 68 | 1011.2 |
| 20260507170034 | 52 | 0 | 0.0 | 0.0 | 0.00 | 0.08 | 0.01 | 58 | 1011.3 |
| 20260507165517 | 52 | 0 | 0.0 | 0.0 | 0.00 | 0.11 | 0.01 | 65 | 1011.3 |
| 20260507165017 | 51 | 0 | 0.0 | 0.0 | 0.00 | 0.11 | 0.01 | 60 | 1011.2 |
| 20260507164530 | 51 | 0 | 0.0 | 0.0 | 0.00 | 0.11 | 0.01 | 59 | 1011.3 |
| 20260507164022 | 51 | 0 | 0.0 | 0.0 | 0.00 | 0.11 | 0.01 | 63 | 1011.4 |
| 20260507163517 | 51 | 0 | 0.0 | 0.0 | 0.00 | 0.11 | 0.01 | 67 | 1011.5 |
| 20260507163033 | 50 | 0 | 0.0 | 0.0 | 0.00 | 0.11 | 0.01 | 62 | 1011.5 |
| 20260507162517 | 51 | 0 | 0.0 | 0.0 | 0.00 | 0.11 | 0.01 | 64 | 1011.6 |
| 20260507162017 | 50 | 0 | 0.0 | 0.0 | 0.00 | 0.11 | 0.01 | 64 | 1011.8 |
| 20260507161536 | 50 | 0 | 0.0 | 0.0 | 0.00 | 0.11 | 0.01 | 64 | 1011.8 |
| 20260507161017 | 50 | 0 | 0.0 | 0.0 | 0.00 | 0.11 | 0.01 | 64 | 1011.8 |
| 20260507160518 | 49 | 0 | 0.0 | 0.0 | 0.00 | 0.11 | 0.01 | 66 | 1011.8 |
| 20260507160036 | 48 | 0 | 0.0 | 0.0 | 0.00 | 0.11 | 0.01 | 65 | 1011.9 |